Weather Roundup
Issued by NWS

Home | Current Version | Previous Version | Graphics & Text | Print | Product List | Glossary Off
Versions: 1 2 3 4 5 6 7 8 9 10 11 12 13 14 15 16 17 18 19 20 21 22 23 24 25 26 27 28 29 30 31 32 33 34 35 36 37 38 39 40 41 42 43 44 45 46 47 48 49 50

000
NZUS93 KARX 230410
HRRWXR

CURRENT HOURLY OBSERVATIONS ACROSS
MUCH OF THE UPPER MISSISSIPPI VALLEY
NATIONAL WEATHER SERVICE LA CROSSE WI
1100 PM CDT TUE JUL 22 2014


...SOUTHEAST MINNESOTA...


CITY           SKY/WX    TMP DP  RH WIND       PRES   REMARKS
ROCHESTER      CLEAR     68  60  75 N9        30.13S
ROCHESTER/MAYO FAIR      72  58  62 NW8       30.12S
WINONA         CLEAR     72  64  78 NW5       30.08S
AUSTIN         CLEAR     70  57  64 N6        30.12S
ALBERT LEA     CLEAR     70  57  64 N9        30.14R
DODGE CENTER   CLEAR     66  61  82 N6        30.14R
PRESTON        CLEAR     67  64  92 N6        30.11S
OWATONNA       CLEAR     66  55  68 N6        30.15R
FARIBAULT      CLEAR     70  54  56 NW5       30.15R
$$

...ELSEWHERE IN MINNESOTA...


CITY           SKY/WX    TMP DP  RH WIND       PRES   REMARKS
MINNEAPOLIS    PTCLDY    73  55  53 N10       30.14R
INTNL FALLS    CLEAR     64  55  72 N5        30.17R
DULUTH         CLEAR     63  54  72 NW5       30.16S
RED WING       PTCLDY    70  57  64 N6        30.11R
REDWOOD FALLS  CLEAR     69  57  65 NW8       30.19R
MANKATO        CLEAR     70  54  56 NW9       30.16R
WORTHINGTON    CLEAR     61  55  82 NW8       30.22S
FAIRMONT       CLEAR     68  54  60 N8        30.18R
$$

...SOUTHWEST WISCONSIN...


CITY           SKY/WX    TMP DP  RH WIND       PRES   REMARKS
LA CROSSE      PTCLDY    72  63  73 N8        30.06S
PRAIRIE DU CHI CLEAR     76  62  60 N3        30.05R
BOSCOBEL       CLEAR     75  62  64 N5        30.05R
LONE ROCK      CLEAR     79  65  62 N7        30.04R
PLATTEVILLE    CLEAR     74  67  79 N8        30.05R
FORT MC COY    MOCLDY    70  61  71 N5        30.08R
CAMP DOUGLAS   PTCLDY    70  63  78 N7        30.08R
VIROQUA        FAIR      69  63  82 N6        30.08R
WIS DELLS      CLEAR     73  60  63 N9G17     30.06R
$$

...ELSEWHERE IN WISCONSIN...


CITY           SKY/WX    TMP DP  RH WIND       PRES   REMARKS
MILWAUKEE      CLOUDY    72  61  68 NE14      30.00R
MADISON        PTCLDY    76  64  66 N8        30.02S
GREEN BAY      CLEAR     67  58  72 N10       30.05R
EAU CLAIRE     CLEAR     69  61  75 N5        30.10R
BLACK RVR FLS  FAIR      72  61  67 NE8       30.08R
MEDFORD        CLEAR     62  57  85 NE6       30.13R
WAUSAU         CLEAR     66  58  75 N7        30.09S
WIS RAPIDS     CLEAR     68  59  73 N13       30.09S
MARSHFIELD     CLEAR     67  57  70 N10       30.10S
RICE LAKE      CLEAR     65  59  81 N3        30.15S
$$

...NORTHEAST IOWA...


CITY           SKY/WX    TMP DP  RH WIND       PRES   REMARKS
WATERLOO       CLEAR     69  65  86 NW5       30.07R
DUBUQUE        PTCLDY    75  67  76 N12       30.05R
DECORAH        CLEAR     70  63  78 N7G13     30.08S
MASON CITY     CLEAR     65  61  87 NW6       30.14R
CHARLES CITY   CLEAR     68  63  83 N6        30.11R
OELWEIN        CLEAR     70  64  83 N6        30.09R
$$

...ELSEWHERE IN IOWA...


CITY           SKY/WX    TMP DP  RH WIND       PRES   REMARKS
DES MOINES     PTCLDY    78  66  66 N9        30.10R
IOWA CITY      CLEAR     80  70  71 N7        30.05R
FORT DODGE     CLEAR     70  61  73 N6        30.15R
MARSHALLTOWN   CLEAR     70  66  87 N7        30.09R
CEDAR RAPIDS   CLEAR     75  67  76 N10       30.05R
$$

...NORTHERN ILLINOIS...


CITY           SKY/WX    TMP DP  RH WIND       PRES   REMARKS
CHICAGO-OHARE  MOCLDY    82  72  71 SW13      29.93F
DUPAGE         LGT RAIN  79  75  87 NW15      29.98R
CHICAGO-MIDWAY CLOUDY    84  76  76 SW14      29.94F HX  93
MOLINE         PTCLDY    82  71  69 NW7       30.00R
ROCKFORD       MOCLDY    81  70  69 N10       30.00R
STERLING       MOCLDY    77  73  88 NW6       30.00R
PEORIA         MOCLDY    81  74  79 SW5       30.00F
$$

NOTE: "FAIR" INDICATES FEW OR NO CLOUDS BELOW 12,000 FEET WITH NO
SIGNIFICANT WEATHER AND/OR OBSTRUCTIONS TO VISIBILITY. WIND
SPEEDS ARE IN MILES-PER-HOUR.



USA.gov is the U.S. government's official web portal to all federal, state and local government web resources and services.